| time (UTC) | temp F | wind direction | speed knots | gust knots | rain 1hr in | rain 24hr in | rain mn in | humidity % | barometer mb |
| 20260904124022 | 67 | 328 | 0.0 | 1.7 | 0.00 | 0.00 | 0.00 | 99 | 1009.9 |
| 20260904123522 | 66 | 123 | 0.9 | 1.7 | 0.00 | 0.00 | 0.00 | 99 | 1009.8 |
| 20260904123041 | 66 | 144 | 0.0 | 0.9 | 0.00 | 0.00 | 0.00 | 99 | 1010.0 |
| 20260904122541 | 66 | 144 | 0.0 | 0.9 | 0.00 | 0.00 | 0.00 | 99 | 1010.0 |
| 20260904122041 | 66 | 0.0 | 0.0 | 0.00 | 0.00 | 0.00 | 99 | 1010.0 | |
| 20260904121541 | 65 | 0.0 | 0.9 | 0.00 | 0.00 | 0.00 | 99 | 1009.9 | |
| 20260904121020 | 65 | 144 | 0.0 | 0.9 | 0.00 | 0.00 | 0.00 | 99 | 1009.9 |
| 20260904120520 | 65 | 0.0 | 0.0 | 0.00 | 0.00 | 0.00 | 99 | 1009.9 | |
| 20260904120042 | 65 | 0.0 | 0.0 | 0.00 | 0.00 | 0.00 | 99 | 1009.8 | |
| 20260904115522 | 65 | 0.0 | 0.0 | 0.00 | 0.00 | 0.00 | 99 | 1009.8 | |
| 20260904115022 | 65 | 0.0 | 0.0 | 0.00 | 0.00 | 0.00 | 99 | 1009.9 | |
| 20260904114521 | 65 | 0.0 | 0.0 | 0.00 | 0.00 | 0.00 | 99 | 1009.9 | |
| 20260904114021 | 65 | 0.0 | 0.0 | 0.00 | 0.00 | 0.00 | 99 | 1009.8 | |
| 20260904113521 | 65 | 150 | 0.0 | 0.9 | 0.00 | 0.00 | 0.00 | 99 | 1009.9 |
| 20260904113021 | 65 | 0.0 | 0.0 | 0.00 | 0.00 | 0.00 | 99 | 1009.8 | |
| 20260904112520 | 65 | 0.0 | 0.0 | 0.00 | 0.00 | 0.00 | 99 | 1009.7 | |
| 20260904112020 | 65 | 0.0 | 0.0 | 0.00 | 0.00 | 0.00 | 99 | 1009.8 | |
| 20260904111520 | 65 | 0.0 | 0.0 | 0.00 | 0.01 | 0.00 | 99 | 1009.7 | |
| 20260904111020 | 65 | 0.0 | 0.0 | 0.00 | 0.01 | 0.00 | 99 | 1009.7 | |
| 20260904110520 | 65 | 0.0 | 0.0 | 0.00 | 0.01 | 0.00 | 99 | 1009.6 | |
| 20260904110041 | 65 | 152 | 0.0 | 0.9 | 0.00 | 0.02 | 0.00 | 99 | 1009.8 |
| 20260904105521 | 65 | 0.0 | 0.0 | 0.00 | 0.02 | 0.00 | 99 | 1009.7 | |
| 20260904105021 | 65 | 151 | 0.0 | 0.9 | 0.00 | 0.03 | 0.00 | 99 | 1009.6 |
| 20260904104601 | 65 | 0.0 | 0.0 | 0.00 | 0.03 | 0.00 | 99 | 1009.7 | |
| 20260904104041 | 65 | 0.0 | 0.0 | 0.00 | 0.04 | 0.00 | 99 | 1009.6 | |
| 20260904103540 | 65 | 0.0 | 0.0 | 0.00 | 0.05 | 0.00 | 99 | 1009.6 | |
| 20260904103025 | 65 | 151 | 0.0 | 0.9 | 0.00 | 0.05 | 0.00 | 99 | 1009.4 |
| 20260904102520 | 65 | 0.0 | 0.0 | 0.00 | 0.07 | 0.00 | 99 | 1009.4 | |
| 20260904102024 | 65 | 0.0 | 0.0 | 0.00 | 0.08 | 0.00 | 99 | 1009.4 | |
| 20260904101521 | 65 | 0.0 | 0.0 | 0.00 | 0.10 | 0.00 | 99 | 1009.3 | |
| 20260904101041 | 66 | 151 | 0.0 | 0.9 | 0.00 | 0.11 | 0.00 | 99 | 1009.2 |
| 20260904100520 | 66 | 152 | 0.0 | 0.9 | 0.00 | 0.11 | 0.00 | 99 | 1009.3 |
| 20260904100021 | 66 | 0.0 | 0.0 | 0.00 | 0.11 | 0.00 | 99 | 1009.4 | |
| 20260904095520 | 66 | 0.0 | 0.0 | 0.00 | 0.11 | 0.00 | 99 | 1009.3 | |
| 20260904095020 | 66 | 0.0 | 0.0 | 0.00 | 0.12 | 0.00 | 99 | 1009.3 | |
| 20260904094520 | 66 | 0.0 | 0.0 | 0.00 | 0.12 | 0.00 | 99 | 1009.3 | |
| 20260904094020 | 66 | 0.0 | 0.0 | 0.00 | 0.13 | 0.00 | 99 | 1009.4 | |
| 20260904093520 | 66 | 0.0 | 0.0 | 0.00 | 0.13 | 0.00 | 99 | 1009.4 | |
| 20260904093021 | 66 | 0.0 | 0.0 | 0.00 | 0.13 | 0.00 | 99 | 1009.4 | |
| 20260904092521 | 66 | 0.0 | 0.0 | 0.00 | 0.13 | 0.00 | 99 | 1009.4 | |
| 20260904092021 | 66 | 0.0 | 0.0 | 0.00 | 0.13 | 0.00 | 99 | 1009.3 | |
| 20260904091601 | 66 | 0.0 | 0.0 | 0.00 | 0.13 | 0.00 | 99 | 1009.2 | |
| 20260904091020 | 66 | 0.0 | 0.0 | 0.00 | 0.13 | 0.00 | 99 | 1009.3 | |
| 20260904090520 | 66 | 0.0 | 0.0 | 0.00 | 0.13 | 0.00 | 99 | 1009.3 | |
| 20260904090020 | 66 | 0.0 | 0.0 | 0.00 | 0.13 | 0.00 | 99 | 1009.3 | |
| 20260904085540 | 66 | 0.0 | 0.0 | 0.00 | 0.13 | 0.00 | 99 | 1009.3 | |
| 20260904085019 | 66 | 0.0 | 0.0 | 0.00 | 0.13 | 0.00 | 99 | 1009.2 | |
| 20260904084521 | 66 | 0.0 | 0.0 | 0.00 | 0.13 | 0.00 | 99 | 1009.1 | |
| 20260904084021 | 66 | 0.0 | 0.9 | 0.00 | 0.13 | 0.00 | 99 | 1009.3 | |
| 20260904083521 | 66 | 152 | 0.0 | 0.9 | 0.00 | 0.16 | 0.00 | 99 | 1009.4 |
| 20260904083020 | 66 | 0.0 | 0.0 | 0.00 | 0.18 | 0.00 | 99 | 1009.4 | |
| 20260904082520 | 66 | 0.0 | 0.0 | 0.00 | 0.21 | 0.00 | 99 | 1009.4 | |
| 20260904082020 | 66 | 0.0 | 0.0 | 0.00 | 0.22 | 0.00 | 99 | 1009.4 | |
| 20260904081520 | 66 | 0.0 | 0.9 | 0.00 | 0.27 | 0.00 | 99 | 1009.5 | |
| 20260904081019 | 66 | 152 | 0.0 | 0.9 | 0.00 | 0.31 | 0.00 | 99 | 1009.6 |
| 20260904080521 | 66 | 0.0 | 0.9 | 0.00 | 0.31 | 0.00 | 99 | 1009.6 | |
| 20260904080021 | 66 | 152 | 0.0 | 0.9 | 0.00 | 0.31 | 0.00 | 99 | 1009.6 |
| 20260904075521 | 66 | 152 | 0.0 | 0.9 | 0.00 | 0.31 | 0.00 | 99 | 1009.7 |
| 20260904075021 | 66 | 152 | 0.0 | 1.7 | 0.00 | 0.31 | 0.00 | 99 | 1009.6 |
| 20260904074520 | 66 | 152 | 0.0 | 0.9 | 0.00 | 0.31 | 0.00 | 99 | 1009.7 |
| 20260904074020 | 66 | 152 | 0.0 | 0.9 | 0.00 | 0.31 | 0.00 | 99 | 1009.7 |
| 20260904073602 | 66 | 0.0 | 0.0 | 0.00 | 0.31 | 0.00 | 99 | 1009.7 | |
| 20260904073020 | 66 | 152 | 0.0 | 0.9 | 0.00 | 0.31 | 0.00 | 99 | 1009.9 |
| 20260904072519 | 66 | 152 | 0.0 | 0.9 | 0.00 | 0.31 | 0.00 | 99 | 1010.0 |
| 20260904072021 | 66 | 0.0 | 0.0 | 0.00 | 0.31 | 0.00 | 99 | 1009.9 | |
| 20260904071521 | 66 | 0.0 | 0.0 | 0.00 | 0.31 | 0.00 | 99 | 1009.8 | |
| 20260904071021 | 66 | 0.0 | 0.0 | 0.00 | 0.31 | 0.00 | 99 | 1009.8 | |
| 20260904070520 | 66 | 0.0 | 0.0 | 0.00 | 0.31 | 0.00 | 99 | 1009.8 | |
| 20260904070021 | 66 | 0.0 | 0.0 | 0.00 | 0.31 | 0.00 | 99 | 1009.8 | |
| 20260904065520 | 66 | 0.0 | 0.0 | 0.00 | 0.31 | 0.00 | 99 | 1009.8 | |
| 20260904065020 | 66 | 0.0 | 0.0 | 0.00 | 0.31 | 0.00 | 99 | 1009.8 | |
| 20260904064520 | 66 | 0.0 | 0.0 | 0.00 | 0.31 | 0.00 | 99 | 1009.9 | |
| 20260904064041 | 66 | 0.0 | 0.0 | 0.00 | 0.31 | 0.00 | 99 | 1009.9 | |
| 20260904063521 | 66 | 0.0 | 0.9 | 0.00 | 0.31 | 0.00 | 99 | 1010.0 | |
| 20260904063024 | 66 | 152 | 0.0 | 0.9 | 0.00 | 0.31 | 0.00 | 99 | 1009.9 |
| 20260904062541 | 66 | 152 | 0.0 | 0.9 | 0.00 | 0.31 | 0.00 | 99 | 1009.9 |
| 20260904062021 | 66 | 152 | 0.0 | 0.9 | 0.00 | 0.31 | 0.00 | 99 | 1009.9 |
| 20260904061520 | 66 | 0.0 | 0.0 | 0.00 | 0.31 | 0.00 | 99 | 1010.0 | |
| 20260904061040 | 66 | 0.0 | 0.0 | 0.00 | 0.31 | 0.00 | 99 | 1010.1 | |
| 20260904060519 | 66 | 0.0 | 0.9 | 0.00 | 0.31 | 0.00 | 99 | 1010.2 | |
| 20260904060021 | 66 | 152 | 0.0 | 0.9 | 0.00 | 0.31 | 0.00 | 99 | 1010.4 |
| 20260904055521 | 66 | 152 | 0.0 | 0.9 | 0.00 | 0.31 | 0.00 | 99 | 1010.6 |
| 20260904055021 | 66 | 152 | 0.0 | 0.9 | 0.00 | 0.31 | 0.00 | 99 | 1010.6 |
| 20260904054520 | 65 | 152 | 0.0 | 0.9 | 0.00 | 0.31 | 0.00 | 99 | 1010.7 |
| 20260904054020 | 65 | 0.0 | 0.9 | 0.00 | 0.31 | 0.00 | 99 | 1010.7 | |
| 20260904053520 | 65 | 152 | 0.9 | 0.9 | 0.00 | 0.31 | 0.00 | 99 | 1010.8 |
| 20260904053020 | 65 | 151 | 0.0 | 1.7 | 0.00 | 0.31 | 0.00 | 99 | 1010.9 |
| 20260904052524 | 65 | 128 | 0.9 | 1.7 | 0.00 | 0.31 | 0.00 | 99 | 1010.9 |
| 20260904052020 | 65 | 115 | 0.9 | 1.7 | 0.00 | 0.31 | 0.00 | 99 | 1010.8 |
| 20260904051522 | 65 | 88 | 0.0 | 1.7 | 0.00 | 0.31 | 0.00 | 99 | 1010.8 |
| 20260904051021 | 65 | 112 | 0.9 | 2.6 | 0.00 | 0.31 | 0.00 | 99 | 1011.0 |
| 20260904050521 | 65 | 112 | 0.0 | 0.9 | 0.00 | 0.31 | 0.00 | 99 | 1011.1 |
| 20260904050020 | 65 | 111 | 0.0 | 0.9 | 0.00 | 0.31 | 0.00 | 99 | 1011.1 |
| 20260904045540 | 65 | 0.0 | 0.0 | 0.00 | 0.31 | 0.00 | 99 | 1011.0 | |
| 20260904045020 | 65 | 111 | 0.0 | 0.9 | 0.00 | 0.31 | 0.00 | 99 | 1011.0 |
| 20260904044521 | 64 | 112 | 0.0 | 0.9 | 0.00 | 0.31 | 0.00 | 99 | 1011.0 |
| 20260904044019 | 64 | 112 | 0.0 | 0.9 | 0.00 | 0.31 | 0.00 | 99 | 1011.0 |
| 20260904043540 | 64 | 112 | 0.0 | 1.7 | 0.00 | 0.31 | 0.00 | 99 | 1011.1 |
| 20260904043021 | 64 | 124 | 0.0 | 0.9 | 0.00 | 0.31 | 0.00 | 99 | 1011.2 |
| 20260904042521 | 65 | 124 | 0.0 | 0.9 | 0.00 | 0.31 | 0.00 | 99 | 1011.2 |
| 20260904042041 | 65 | 121 | 0.0 | 0.9 | 0.00 | 0.31 | 0.00 | 99 | 1011.1 |
| 20260904041520 | 65 | 80 | 0.0 | 0.9 | 0.00 | 0.31 | 0.00 | 99 | 1011.4 |
| 20260904041020 | 65 | 80 | 0.0 | 0.9 | 0.00 | 0.31 | 0.00 | 99 | 1011.3 |
| 20260904040540 | 65 | 0.0 | 0.0 | 0.00 | 0.31 | 0.00 | 99 | 1011.2 | |
| 20260904040040 | 65 | 80 | 0.0 | 0.9 | 0.00 | 0.31 | 0.00 | 99 | 1011.2 |
| 20260904035519 | 65 | 80 | 0.0 | 0.9 | 0.00 | 0.31 | 0.31 | 99 | 1011.3 |
| 20260904035019 | 65 | 80 | 0.0 | 0.9 | 0.00 | 0.31 | 0.31 | 99 | 1011.2 |
| 20260904034521 | 65 | 0.0 | 0.0 | 0.00 | 0.31 | 0.31 | 99 | 1011.2 | |
| 20260904034021 | 65 | 0.0 | 0.0 | 0.00 | 0.31 | 0.31 | 99 | 1011.3 | |
| 20260904033520 | 65 | 0.0 | 0.0 | 0.00 | 0.31 | 0.31 | 99 | 1011.4 | |
| 20260904033020 | 65 | 0.0 | 0.0 | 0.00 | 0.31 | 0.31 | 99 | 1011.4 | |
| 20260904032520 | 65 | 0.0 | 0.0 | 0.00 | 0.31 | 0.31 | 99 | 1011.3 | |
| 20260904032020 | 65 | 0.0 | 0.0 | 0.00 | 0.31 | 0.31 | 99 | 1011.2 | |
| 20260904031520 | 65 | 0.0 | 0.0 | 0.00 | 0.31 | 0.31 | 99 | 1011.3 | |
| 20260904031021 | 66 | 0.0 | 0.0 | 0.00 | 0.31 | 0.31 | 99 | 1011.3 | |
| 20260904030521 | 66 | 0.0 | 0.0 | 0.00 | 0.31 | 0.31 | 99 | 1011.3 | |
| 20260904030021 | 66 | 0.0 | 0.0 | 0.00 | 0.31 | 0.31 | 99 | 1011.3 | |
| 20260904025521 | 66 | 0.0 | 0.0 | 0.00 | 0.31 | 0.31 | 99 | 1011.3 | |
| 20260904025020 | 66 | 0.0 | 0.0 | 0.00 | 0.31 | 0.31 | 99 | 1011.3 | |
| 20260904024520 | 66 | 0.0 | 0.0 | 0.00 | 0.31 | 0.31 | 99 | 1011.5 | |
| 20260904024020 | 66 | 0.0 | 0.0 | 0.00 | 0.31 | 0.31 | 99 | 1011.5 | |
| 20260904023540 | 66 | 0.0 | 0.0 | 0.00 | 0.31 | 0.31 | 99 | 1011.6 | |
| 20260904023020 | 66 | 0.0 | 0.0 | 0.00 | 0.31 | 0.31 | 99 | 1011.6 | |
| 20260904022521 | 66 | 0.0 | 0.0 | 0.00 | 0.31 | 0.31 | 99 | 1011.7 | |
| 20260904022021 | 66 | 0.0 | 0.0 | 0.00 | 0.31 | 0.31 | 99 | 1011.7 | |
| 20260904021521 | 66 | 0.0 | 0.0 | 0.00 | 0.31 | 0.31 | 99 | 1011.8 | |
| 20260904021021 | 66 | 0.0 | 0.0 | 0.00 | 0.31 | 0.31 | 98 | 1011.8 | |
| 20260904020520 | 66 | 0.0 | 0.0 | 0.00 | 0.31 | 0.31 | 98 | 1011.8 | |
| 20260904020020 | 66 | 0.0 | 0.0 | 0.00 | 0.31 | 0.31 | 98 | 1012.0 | |
| 20260904015522 | 66 | 0.0 | 0.0 | 0.00 | 0.31 | 0.31 | 98 | 1012.0 | |
| 20260904015022 | 66 | 0.0 | 0.0 | 0.00 | 0.31 | 0.31 | 98 | 1011.8 | |
| 20260904014521 | 67 | 0.0 | 0.0 | 0.00 | 0.31 | 0.31 | 98 | 1011.9 | |
| 20260904014021 | 67 | 0.0 | 0.0 | 0.00 | 0.31 | 0.31 | 98 | 1012.0 | |
| 20260904013541 | 67 | 0.0 | 0.0 | 0.00 | 0.31 | 0.31 | 97 | 1012.0 | |
| 20260904013041 | 67 | 0.0 | 0.0 | 0.00 | 0.31 | 0.31 | 97 | 1012.0 | |
| 20260904012541 | 67 | 0.0 | 0.0 | 0.00 | 0.31 | 0.31 | 97 | 1012.1 | |
| 20260904012020 | 67 | 0.0 | 0.0 | 0.00 | 0.31 | 0.31 | 97 | 1012.1 | |
| 20260904011621 | 67 | 0.0 | 0.0 | 0.00 | 0.31 | 0.31 | 97 | 1012.0 | |
| 20260904011020 | 67 | 0.0 | 0.0 | 0.00 | 0.31 | 0.31 | 97 | 1012.2 | |
| 20260904010520 | 67 | 0.0 | 0.0 | 0.00 | 0.31 | 0.31 | 97 | 1012.0 | |
| 20260904010020 | 67 | 0.0 | 0.0 | 0.00 | 0.31 | 0.31 | 96 | 1012.0 | |
| 20260904005521 | 67 | 0.0 | 0.0 | 0.00 | 0.31 | 0.31 | 96 | 1011.8 | |
| 20260904005021 | 68 | 0.0 | 0.0 | 0.00 | 0.31 | 0.31 | 96 | 1011.8 | |
| 20260904004522 | 68 | 0.0 | 0.0 | 0.00 | 0.31 | 0.31 | 96 | 1011.7 | |
| 20260904004020 | 68 | 0.0 | 0.0 | 0.00 | 0.31 | 0.31 | 96 | 1011.7 | |
| 20260904003520 | 68 | 80 | 0.0 | 0.9 | 0.00 | 0.31 | 0.31 | 95 | 1011.6 |
| 20260904003040 | 68 | 79 | 0.0 | 0.9 | 0.00 | 0.31 | 0.31 | 95 | 1011.5 |
| 20260904002520 | 69 | 0.0 | 0.9 | 0.00 | 0.31 | 0.31 | 94 | 1011.4 | |
| 20260904002040 | 69 | 177 | 0.0 | 0.9 | 0.00 | 0.31 | 0.31 | 94 | 1011.4 |
| 20260904001522 | 69 | 184 | 0.9 | 1.7 | 0.00 | 0.31 | 0.31 | 94 | 1011.3 |
| 20260904001021 | 69 | 193 | 0.0 | 0.9 | 0.00 | 0.31 | 0.31 | 95 | 1011.3 |
| 20260904000541 | 69 | 193 | 0.0 | 0.9 | 0.00 | 0.31 | 0.31 | 94 | 1011.3 |
| 20260904000041 | 69 | 194 | 0.0 | 0.9 | 0.00 | 0.31 | 0.31 | 94 | 1011.4 |
| 20260903235541 | 69 | 194 | 0.0 | 0.9 | 0.00 | 0.31 | 0.31 | 95 | 1011.2 |
| 20260903235020 | 69 | 0.0 | 0.0 | 0.00 | 0.31 | 0.31 | 95 | 1011.2 | |
| 20260903234520 | 69 | 0.0 | 0.0 | 0.00 | 0.31 | 0.31 | 95 | 1011.1 | |
| 20260903234019 | 70 | 194 | 0.0 | 0.9 | 0.00 | 0.31 | 0.31 | 95 | 1011.1 |
| 20260903233519 | 70 | 0.0 | 0.0 | 0.00 | 0.31 | 0.31 | 95 | 1011.1 | |
| 20260903233023 | 70 | 193 | 0.0 | 0.9 | 0.00 | 0.31 | 0.31 | 94 | 1011.1 |
| 20260903232521 | 70 | 164 | 0.0 | 1.7 | 0.00 | 0.31 | 0.31 | 94 | 1011.2 |
| 20260903232021 | 70 | 128 | 0.0 | 0.9 | 0.00 | 0.31 | 0.31 | 95 | 1011.3 |
| 20260903231621 | 71 | 0.0 | 0.0 | 0.00 | 0.31 | 0.31 | 95 | 1011.5 | |
| 20260903231025 | 71 | 127 | 0.0 | 0.9 | 0.00 | 0.31 | 0.31 | 94 | 1011.3 |
| 20260903230520 | 71 | 0.0 | 0.9 | 0.00 | 0.31 | 0.31 | 93 | 1011.1 | |
| 20260903230022 | 72 | 127 | 0.9 | 2.6 | 0.00 | 0.31 | 0.31 | 91 | 1011.1 |
| 20260903225521 | 71 | 111 | 0.0 | 2.6 | 0.00 | 0.31 | 0.31 | 93 | 1011.1 |
| 20260903225021 | 72 | 0.0 | 0.0 | 0.00 | 0.31 | 0.31 | 93 | 1011.1 | |
| 20260903224521 | 72 | 162 | 0.0 | 0.9 | 0.00 | 0.31 | 0.31 | 91 | 1011.0 |
| 20260903224021 | 71 | 170 | 0.0 | 1.7 | 0.00 | 0.31 | 0.31 | 93 | 1011.1 |
| 20260903223600 | 71 | 182 | 0.0 | 0.9 | 0.00 | 0.31 | 0.31 | 94 | 1011.3 |
| 20260903223022 | 71 | 0.0 | 0.0 | 0.00 | 0.31 | 0.31 | 93 | 1011.3 | |
| 20260903222522 | 72 | 0.0 | 0.0 | 0.00 | 0.31 | 0.31 | 93 | 1011.5 | |
| 20260903222021 | 72 | 0.0 | 0.0 | 0.00 | 0.31 | 0.31 | 93 | 1011.6 | |
| 20260903221521 | 72 | 0.0 | 0.0 | 0.00 | 0.31 | 0.31 | 92 | 1011.5 | |
| 20260903221041 | 73 | 182 | 0.0 | 0.9 | 0.00 | 0.31 | 0.31 | 90 | 1011.5 |
| 20260903220521 | 73 | 182 | 0.9 | 1.7 | 0.00 | 0.31 | 0.31 | 87 | 1011.4 |
| 20260903220021 | 73 | 155 | 0.9 | 1.7 | 0.00 | 0.31 | 0.31 | 89 | 1011.5 |
| 20260903215520 | 73 | 0.0 | 0.0 | 0.00 | 0.31 | 0.31 | 90 | 1011.6 | |
| 20260903215022 | 73 | 164 | 0.0 | 0.9 | 0.00 | 0.31 | 0.31 | 88 | 1011.5 |
| 20260903214522 | 74 | 163 | 0.0 | 1.7 | 0.00 | 0.31 | 0.31 | 84 | 1011.3 |
| 20260903214022 | 74 | 131 | 0.9 | 2.6 | 0.00 | 0.31 | 0.31 | 85 | 1011.4 |
| 20260903213521 | 73 | 111 | 1.7 | 3.5 | 0.00 | 0.31 | 0.31 | 87 | 1011.3 |
| 20260903213021 | 73 | 164 | 0.9 | 2.6 | 0.00 | 0.31 | 0.31 | 89 | 1011.4 |
| 20260903212541 | 73 | 0.0 | 0.0 | 0.00 | 0.31 | 0.31 | 88 | 1011.3 | |
| 20260903212021 | 74 | 201 | 0.0 | 0.9 | 0.00 | 0.31 | 0.31 | 87 | 1011.3 |
| 20260903211520 | 74 | 201 | 0.0 | 0.9 | 0.00 | 0.31 | 0.31 | 85 | 1011.4 |
| 20260903211020 | 74 | 192 | 0.9 | 3.5 | 0.00 | 0.31 | 0.31 | 84 | 1011.6 |
| 20260903210522 | 74 | 174 | 0.9 | 3.5 | 0.00 | 0.31 | 0.31 | 85 | 1011.4 |
| 20260903210021 | 74 | 162 | 0.0 | 1.7 | 0.00 | 0.31 | 0.31 | 84 | 1011.4 |
| 20260903205521 | 74 | 156 | 0.9 | 1.7 | 0.00 | 0.31 | 0.31 | 84 | 1011.4 |
| 20260903205042 | 74 | 152 | 0.9 | 2.6 | 0.00 | 0.31 | 0.31 | 84 | 1011.4 |
| 20260903204521 | 74 | 148 | 0.0 | 0.9 | 0.00 | 0.31 | 0.31 | 83 | 1011.4 |
| 20260903204020 | 74 | 105 | 0.0 | 0.9 | 0.00 | 0.31 | 0.31 | 83 | 1011.4 |
| 20260903203520 | 75 | 67 | 0.0 | 1.7 | 0.00 | 0.31 | 0.31 | 82 | 1011.5 |
| 20260903203020 | 75 | 70 | 0.9 | 2.6 | 0.00 | 0.31 | 0.31 | 81 | 1011.5 |
| 20260903202543 | 75 | 130 | 1.7 | 5.2 | 0.00 | 0.31 | 0.31 | 80 | 1011.4 |
| 20260903202022 | 75 | 115 | 1.7 | 3.5 | 0.00 | 0.31 | 0.31 | 81 | 1011.6 |
| 20260903201520 | 75 | 115 | 0.9 | 3.5 | 0.00 | 0.31 | 0.31 | 82 | 1011.7 |
| 20260903201021 | 74 | 141 | 0.9 | 2.6 | 0.00 | 0.31 | 0.31 | 83 | 1011.7 |
| 20260903200541 | 74 | 83 | 0.9 | 2.6 | 0.00 | 0.31 | 0.31 | 82 | 1011.8 |
| 20260903200021 | 74 | 63 | 0.9 | 1.7 | 0.00 | 0.31 | 0.31 | 82 | 1011.7 |
| 20260903195521 | 74 | 77 | 0.9 | 2.6 | 0.00 | 0.31 | 0.31 | 81 | 1011.9 |
| 20260903195020 | 74 | 101 | 1.7 | 3.5 | 0.00 | 0.31 | 0.31 | 82 | 1012.0 |
| 20260903194520 | 74 | 109 | 0.0 | 0.9 | 0.00 | 0.31 | 0.31 | 82 | 1012.1 |
| 20260903194022 | 74 | 100 | 0.9 | 3.5 | 0.00 | 0.31 | 0.31 | 82 | 1012.0 |
| 20260903193522 | 74 | 108 | 0.9 | 3.5 | 0.00 | 0.31 | 0.31 | 82 | 1012.1 |
| 20260903193021 | 74 | 108 | 0.9 | 3.5 | 0.00 | 0.31 | 0.31 | 82 | 1012.1 |
| 20260903192521 | 74 | 116 | 0.9 | 3.5 | 0.00 | 0.31 | 0.31 | 82 | 1012.2 |
| 20260903192021 | 74 | 111 | 1.7 | 3.5 | 0.00 | 0.31 | 0.31 | 83 | 1012.2 |
| 20260903191521 | 73 | 102 | 0.9 | 3.5 | 0.00 | 0.31 | 0.31 | 84 | 1012.2 |
| 20260903191021 | 73 | 119 | 0.9 | 2.6 | 0.00 | 0.31 | 0.31 | 85 | 1012.3 |
| 20260903190520 | 73 | 97 | 0.9 | 2.6 | 0.00 | 0.31 | 0.31 | 85 | 1012.3 |
| 20260903190020 | 72 | 97 | 1.7 | 2.6 | 0.00 | 0.31 | 0.31 | 86 | 1012.3 |
| 20260903185522 | 72 | 82 | 0.9 | 2.6 | 0.00 | 0.31 | 0.31 | 87 | 1012.3 |
| 20260903185022 | 72 | 76 | 1.7 | 3.5 | 0.00 | 0.31 | 0.31 | 86 | 1012.5 |
| 20260903184521 | 72 | 98 | 0.0 | 2.6 | 0.00 | 0.31 | 0.31 | 88 | 1012.6 |
| 20260903184021 | 72 | 97 | 0.0 | 1.7 | 0.00 | 0.31 | 0.31 | 87 | 1012.7 |
| 20260903183521 | 72 | 74 | 0.0 | 1.7 | 0.00 | 0.31 | 0.31 | 88 | 1012.8 |
| 20260903183026 | 72 | 60 | 0.9 | 1.7 | 0.00 | 0.31 | 0.31 | 88 | 1012.8 |
| 20260903182520 | 72 | 45 | 0.0 | 0.9 | 0.00 | 0.31 | 0.31 | 86 | 1012.9 |
| 20260903182041 | 71 | 37 | 0.0 | 0.9 | 0.00 | 0.31 | 0.31 | 87 | 1012.9 |
| 20260903181520 | 71 | 60 | 0.0 | 0.9 | 0.00 | 0.31 | 0.31 | 87 | 1013.0 |
| 20260903181042 | 72 | 61 | 0.0 | 1.7 | 0.00 | 0.31 | 0.31 | 86 | 1012.9 |
| 20260903180522 | 72 | 3 | 0.0 | 1.7 | 0.00 | 0.31 | 0.31 | 86 | 1012.9 |
| 20260903180021 | 72 | 42 | 0.0 | 1.7 | 0.00 | 0.31 | 0.31 | 86 | 1013.0 |
| 20260903175521 | 72 | 323 | 0.0 | 0.9 | 0.00 | 0.31 | 0.31 | 87 | 1013.1 |
| 20260903175021 | 72 | 39 | 0.0 | 0.9 | 0.00 | 0.31 | 0.31 | 86 | 1013.1 |
| 20260903174546 | 71 | 6 | 0.0 | 0.9 | 0.00 | 0.31 | 0.31 | 88 | 1013.1 |
| 20260903174020 | 71 | 60 | 0.9 | 2.6 | 0.00 | 0.31 | 0.31 | 87 | 1013.1 |
| 20260903173520 | 71 | 281 | 0.9 | 1.7 | 0.00 | 0.31 | 0.31 | 89 | 1013.3 |
| 20260903173022 | 71 | 82 | 0.0 | 0.9 | 0.00 | 0.31 | 0.31 | 88 | 1013.1 |
| 20260903172522 | 70 | 61 | 0.0 | 0.9 | 0.00 | 0.31 | 0.31 | 88 | 1013.2 |
| 20260903172022 | 70 | 0.0 | 0.0 | 0.00 | 0.31 | 0.31 | 90 | 1013.1 | |
| 20260903171521 | 70 | 66 | 0.0 | 2.6 | 0.00 | 0.31 | 0.31 | 89 | 1013.1 |
| 20260903171021 | 70 | 347 | 0.9 | 2.6 | 0.00 | 0.31 | 0.31 | 89 | 1013.0 |
| 20260903170521 | 70 | 37 | 0.0 | 0.9 | 0.00 | 0.31 | 0.31 | 90 | 1013.1 |
| 20260903170020 | 70 | 38 | 0.0 | 1.7 | 0.00 | 0.31 | 0.31 | 90 | 1013.2 |
| 20260903165520 | 70 | 37 | 0.0 | 1.7 | 0.00 | 0.31 | 0.31 | 90 | 1013.1 |
| 20260903165022 | 70 | 38 | 0.0 | 0.9 | 0.00 | 0.31 | 0.31 | 92 | 1013.0 |
| 20260903164602 | 69 | 38 | 0.0 | 0.9 | 0.00 | 0.31 | 0.31 | 92 | 1013.0 |
| 20260903163521 | 69 | 37 | 0.0 | 0.9 | 0.00 | 0.31 | 0.31 | 91 | 1012.9 |
| 20260903163041 | 70 | 38 | 0.0 | 1.7 | 0.00 | 0.31 | 0.31 | 91 | 1012.8 |
| 20260903162521 | 69 | 261 | 0.0 | 2.6 | 0.00 | 0.31 | 0.31 | 93 | 1012.9 |
| 20260903162041 | 69 | 258 | 0.0 | 2.6 | 0.00 | 0.31 | 0.31 | 92 | 1013.0 |
| 20260903161520 | 69 | 222 | 0.0 | 0.9 | 0.00 | 0.31 | 0.31 | 91 | 1013.0 |
| 20260903161020 | 69 | 223 | 0.0 | 0.9 | 0.00 | 0.31 | 0.31 | 93 | 1012.9 |
| 20260903160542 | 69 | 223 | 0.0 | 0.9 | 0.00 | 0.31 | 0.31 | 94 | 1013.1 |
| 20260903160042 | 69 | 223 | 0.0 | 0.9 | 0.00 | 0.31 | 0.31 | 93 | 1013.1 |
| 20260903155542 | 68 | 223 | 0.0 | 0.9 | 0.00 | 0.31 | 0.31 | 94 | 1013.1 |
| 20260903155041 | 68 | 111 | 0.9 | 1.7 | 0.00 | 0.31 | 0.31 | 94 | 1013.2 |
| 20260903154521 | 68 | 87 | 0.9 | 1.7 | 0.00 | 0.31 | 0.31 | 94 | 1013.3 |
| 20260903154021 | 68 | 131 | 0.0 | 0.9 | 0.00 | 0.31 | 0.31 | 95 | 1013.5 |
| 20260903153541 | 67 | 131 | 0.0 | 0.9 | 0.00 | 0.31 | 0.31 | 95 | 1013.6 |
| 20260903153020 | 67 | 131 | 0.0 | 0.9 | 0.00 | 0.31 | 0.31 | 95 | 1013.6 |
| 20260903152520 | 67 | 131 | 0.0 | 0.9 | 0.00 | 0.31 | 0.31 | 96 | 1013.6 |
| 20260903152020 | 67 | 0.0 | 0.0 | 0.00 | 0.31 | 0.31 | 97 | 1013.8 | |
| 20260903151520 | 67 | 0.0 | 0.0 | 0.00 | 0.31 | 0.31 | 97 | 1013.6 | |
| 20260903151020 | 67 | 0.0 | 0.9 | 0.00 | 0.31 | 0.31 | 97 | 1013.7 | |
| 20260903150600 | 67 | 131 | 0.0 | 0.9 | 0.00 | 0.31 | 0.31 | 98 | 1013.7 |
| 20260903150040 | 66 | 154 | 0.0 | 1.7 | 0.00 | 0.31 | 0.31 | 97 | 1013.8 |
| 20260903145521 | 66 | 160 | 0.0 | 0.9 | 0.00 | 0.31 | 0.31 | 98 | 1013.8 |
| 20260903145021 | 66 | 159 | 0.0 | 0.9 | 0.00 | 0.31 | 0.31 | 97 | 1013.9 |
| 20260903144546 | 66 | 161 | 0.0 | 0.9 | 0.00 | 0.31 | 0.31 | 97 | 1013.9 |
| 20260903144020 | 66 | 161 | 0.0 | 0.9 | 0.00 | 0.31 | 0.31 | 97 | 1014.0 |
| 20260903143520 | 66 | 166 | 0.0 | 1.7 | 0.00 | 0.31 | 0.31 | 98 | 1013.9 |
| 20260903143020 | 66 | 170 | 0.0 | 1.7 | 0.00 | 0.31 | 0.31 | 98 | 1013.9 |
| 20260903142520 | 66 | 172 | 0.9 | 2.6 | 0.00 | 0.31 | 0.31 | 98 | 1013.9 |
| 20260903142019 | 66 | 230 | 0.9 | 2.6 | 0.00 | 0.31 | 0.31 | 98 | 1013.9 |
| 20260903141559 | 66 | 281 | 0.0 | 1.7 | 0.00 | 0.31 | 0.31 | 99 | 1014.0 |
| 20260903141046 | 65 | 226 | 0.0 | 1.7 | 0.00 | 0.31 | 0.31 | 99 | 1014.3 |
| 20260903140521 | 65 | 209 | 0.0 | 1.7 | 0.00 | 0.31 | 0.31 | 99 | 1014.3 |
| 20260903140020 | 65 | 205 | 0.0 | 5.2 | 0.00 | 0.31 | 0.31 | 99 | 1014.4 |
| 20260903135520 | 65 | 240 | 0.0 | 5.2 | 0.00 | 0.31 | 0.31 | 99 | 1014.5 |
| 20260903135040 | 65 | 280 | 0.0 | 1.7 | 0.00 | 0.31 | 0.31 | 99 | 1014.4 |
| 20260903134522 | 64 | 242 | 0.0 | 0.9 | 0.00 | 0.31 | 0.31 | 99 | 1014.4 |
| 20260903134022 | 64 | 187 | 0.0 | 1.7 | 0.00 | 0.31 | 0.31 | 99 | 1014.4 |
| 20260903133522 | 64 | 187 | 0.9 | 2.6 | 0.00 | 0.31 | 0.31 | 99 | 1014.4 |
| 20260903133021 | 64 | 143 | 0.9 | 2.6 | 0.00 | 0.31 | 0.31 | 99 | 1014.3 |
| 20260903132521 | 64 | 93 | 0.0 | 0.9 | 0.00 | 0.31 | 0.31 | 99 | 1014.4 |
| 20260903132021 | 64 | 88 | 0.0 | 1.7 | 0.00 | 0.31 | 0.31 | 99 | 1014.4 |
| 20260903131520 | 64 | 88 | 0.0 | 0.9 | 0.00 | 0.31 | 0.31 | 99 | 1014.4 |
| 20260903131020 | 64 | 88 | 0.0 | 0.9 | 0.00 | 0.31 | 0.31 | 99 | 1014.4 |
| 20260903130520 | 64 | 88 | 0.0 | 0.9 | 0.00 | 0.31 | 0.31 | 99 | 1014.3 |
| 20260903130021 | 64 | 88 | 0.0 | 0.9 | 0.00 | 0.31 | 0.31 | 99 | 1014.3 |
| 20260903125542 | 64 | 0.0 | 0.0 | 0.00 | 0.31 | 0.31 | 99 | 1014.5 | |
| 20260903125021 | 63 | 0.0 | 0.0 | 0.00 | 0.31 | 0.31 | 99 | 1014.4 | |
| 20260903124521 | 63 | 0.0 | 0.0 | 0.00 | 0.31 | 0.31 | 99 | 1014.6 |